Theta_e
338 340 340 342 344 345 345 345 346 346 350 349 351 351 350 352 348 350 352 355 354 353 354 353 352 351 351 350 350 353 354 356 357 357 355 357 361 363 364 364 363 362 362 361 361 364 360 360 358 358 358 355 352 350 350 350 350 350 350 350 342 339 338 343 342 338 334 335 338 339 340 342 352 348 342 339 339 340 336 333 333 332 334 338 340
338 338 340 341 344 344 344 344 347 344 347 349 349 351 350 352 350 349 354 355 355 354 354 354 353 352 350 350 350 352 352 353 354 355 355 360 363 362 364 364 363 363 364 362 362 362 360 358 356 355 355 354 353 353 351 355 352 349 347 344 343 338 335 341 343 340 335 332 331 332 337 335 344 344 339 338 339 336 334 331 332 331 331 333 341
336 338 339 340 343 344 344 344 345 346 347 350 350 351 350 350 352 350 355 355 355 356 354 353 354 355 353 351 351 350 355 356 356 358 358 357 363 362 364 364 362 362 363 365 363 362 359 355 355 354 353 356 352 350 350 349 348 345 341 338 339 341 340 343 340 335 331 335 336 330 328 329 337 337 343 342 341 331 331 330 331 330 331 332 333
334 336 338 340 341 343 343 344 344 346 348 348 351 350 351 351 351 353 352 356 355 357 357 355 357 356 355 354 353 352 352 356 357 359 358 356 358 364 363 364 363 363 363 365 364 361 357 354 356 354 354 355 351 349 348 345 345 342 340 344 338 332 336 336 342 338 339 333 326 328 329 331 327 326 332 336 336 329 330 330 331 330 330 332 330
333 336 337 338 339 341 342 345 346 346 347 347 351 351 352 351 352 354 352 354 356 358 357 357 358 356 355 355 354 354 357 355 354 355 355 356 359 363 363 364 364 362 362 361 359 360 359 356 354 355 354 353 352 349 348 345 342 339 343 341 338 337 334 337 342 341 337 338 334 330 326 326 324 329 330 331 337 330 329 329 333 328 329 333 329
334 336 337 338 338 340 342 345 345 346 346 348 350 353 352 352 353 356 354 353 356 357 357 357 356 354 352 351 348 347 348 350 350 351 353 354 357 363 364 363 365 362 360 359 359 361 359 357 355 355 353 351 351 346 345 343 339 341 341 337 336 340 338 335 336 343 341 345 338 334 330 324 325 330 328 323 334 339 332 331 330 328 331 332 330
333 337 337 337 338 339 342 344 346 345 346 349 350 352 353 353 354 356 356 354 355 357 357 358 355 354 353 352 351 348 347 350 351 355 355 358 357 362 362 361 362 360 360 359 359 360 358 356 355 353 351 350 351 349 344 341 339 341 342 343 342 346 338 332 334 335 337 339 342 339 341 341 338 328 324 327 322 327 337 327 328 330 330 331 332
331 333 336 337 337 339 341 345 346 346 347 348 349 351 353 354 355 356 357 357 355 357 358 358 355 354 354 353 353 352 350 351 354 354 357 359 357 360 360 359 359 360 359 358 357 357 355 354 353 350 349 347 349 341 339 338 341 345 344 343 344 344 340 335 334 335 333 336 338 331 337 335 336 334 337 325 323 320 323 327 326 329 329 330 332
332 331 334 336 337 339 342 345 347 347 347 347 348 350 354 356 357 357 357 358 356 356 358 359 358 356 355 354 353 355 355 355 357 357 356 358 355 356 358 359 358 359 357 356 355 356 356 353 351 349 348 346 353 343 341 344 342 341 341 340 339 339 339 341 336 334 333 333 335 334 336 334 334 335 335 334 327 321 322 323 323 330 329 327 326
332 332 333 337 338 339 342 347 347 347 348 349 349 351 354 356 356 356 356 357 358 356 356 358 359 359 356 355 354 355 356 356 356 355 354 354 353 352 355 356 355 355 355 353 354 355 353 353 351 349 348 347 349 342 341 341 340 340 341 341 340 337 337 339 333 332 336 337 339 334 333 335 328 328 328 328 330 325 320 319 322 319 320 326 330
331 332 333 335 339 340 342 346 347 348 348 348 349 350 354 356 356 356 356 357 358 357 356 356 359 359 357 356 356 356 356 355 353 353 353 351 352 351 353 353 353 352 353 352 353 353 352 353 350 349 346 349 346 342 340 340 341 340 340 340 340 340 337 340 341 342 342 339 339 336 334 334 326 328 328 326 325 327 323 324 324 326 323 325 331
332 332 333 334 337 339 340 345 346 347 348 347 348 350 353 355 356 355 356 356 357 358 357 356 357 358 358 358 357 357 356 355 352 352 353 350 350 352 352 352 352 352 352 351 351 351 352 351 350 349 347 347 342 342 348 340 341 341 340 340 339 341 338 338 334 337 336 337 334 336 334 335 333 333 332 328 324 325 321 320 322 326 328 328 336
332 332 333 334 335 338 338 342 346 346 346 347 348 349 352 355 356 355 355 356 356 358 357 357 356 357 357 358 358 358 356 355 353 353 352 351 350 353 351 351 351 350 351 349 350 350 351 349 348 346 346 347 342 343 341 341 341 340 340 340 339 338 338 338 335 337 335 335 332 334 336 332 333 331 333 334 332 331 328 322 326 327 323 327 332
332 332 333 334 334 338 339 340 345 346 347 347 348 349 351 354 355 355 355 356 357 357 358 357 357 357 358 358 358 359 357 355 354 353 353 352 352 353 352 352 351 350 351 349 350 351 351 350 350 348 346 347 344 341 339 343 343 338 342 339 338 338 339 339 337 338 337 337 338 334 332 334 334 336 335 331 332 329 326 324 327 330 329 327 329
332 332 333 335 335 337 340 341 344 346 347 347 348 348 350 352 354 355 355 356 356 357 358 358 358 358 359 359 359 359 358 356 355 354 355 353 352 354 353 353 352 351 352 350 351 349 351 350 349 350 347 346 345 343 342 341 343 341 342 339 340 339 338 339 336 337 339 338 336 334 336 335 335 335 335 336 334 333 332 331 328 324 325 326 327
331 332 334 337 337 337 340 341 343 346 347 347 347 348 349 351 354 355 355 356 356 357 357 358 358 359 359 359 359 359 359 358 357 355 357 356 353 356 354 353 353 353 352 351 349 349 350 350 349 349 347 345 345 342 341 339 341 340 342 340 339 343 339 339 337 337 337 338 336 337 337 334 335 335 335 335 335 336 336 335 332 327 322 320 324
330 332 333 335 339 339 340 342 343 345 347 347 347 348 349 351 353 354 355 357 357 357 357 358 358 358 359 359 359 359 358 357 357 356 357 357 355 356 355 355 354 354 353 351 351 350 349 349 348 348 347 345 343 342 341 341 340 340 339 340 338 340 339 339 338 335 335 337 336 337 334 334 335 341 338 338 339 336 334 334 333 331 328 322 320
333 333 334 335 339 341 341 342 344 345 346 347 347 348 350 352 354 354 355 355 357 357 358 358 357 358 359 359 359 359 358 358 359 357 357 357 356 356 356 355 354 354 354 352 349 352 350 353 348 346 346 345 343 342 340 342 341 340 339 340 338 338 337 337 339 337 336 336 339 337 334 336 339 336 335 336 336 337 336 335 335 336 333 327 325
334 334 334 335 336 340 341 342 344 346 347 348 349 349 351 353 355 355 355 357 357 358 358 359 359 359 360 360 359 359 359 359 359 358 357 356 356 355 355 356 355 354 353 352 348 350 349 349 347 346 346 344 343 341 341 342 341 339 340 338 339 338 337 335 336 337 336 338 336 337 338 338 339 337 337 337 340 338 336 338 339 338 334 331 329
333 334 335 336 337 339 341 342 343 345 347 348 349 350 351 353 355 355 356 357 358 358 359 358 359 360 360 360 360 360 359 359 359 359 357 356 356 356 355 355 355 355 353 353 349 348 349 349 347 346 345 344 343 341 341 341 341 338 339 338 338 337 336 338 336 337 337 337 336 335 335 335 336 337 335 334 335 339 338 337 338 336 335 334 332
332 333 333 335 337 338 340 342 344 347 348 349 349 349 350 353 354 355 355 356 357 358 359 359 360 359 359 359 359 359 359 359 359 359 357 356 356 356 356 355 355 355 353 352 351 349 349 348 347 346 345 343 342 341 341 341 341 338 338 338 337 337 335 335 338 336 336 335 334 333 333 333 336 334 332 333 334 336 334 334 336 335 334 335 333
332 332 333 334 338 339 340 341 343 346 348 347 349 349 349 351 354 355 356 356 357 358 358 359 360 360 359 359 360 360 360 359 358 358 357 356 356 356 356 355 354 354 354 352 351 350 349 349 347 345 344 343 342 341 340 340 340 339 338 339 337 336 336 334 335 335 335 336 335 333 333 334 338 336 336 336 335 336 334 333 334 335 333 333 334
332 332 333 335 337 339 340 341 342 344 347 347 348 348 349 350 352 355 356 356 358 358 359 359 359 359 359 360 360 360 360 359 357 357 357 357 356 356 356 355 355 354 354 353 352 351 350 349 347 345 344 343 342 342 341 340 339 339 338 338 338 336 335 335 334 333 334 335 335 335 334 335 337 333 332 332 334 334 334 331 331 334 332 332 333
331 332 333 336 339 339 339 341 342 343 345 346 347 348 348 350 351 353 354 356 358 359 359 359 359 359 359 359 359 360 359 359 357 357 357 357 357 356 356 355 355 355 353 353 353 352 350 349 347 345 344 343 342 342 341 340 339 339 338 337 337 337 335 335 335 333 333 334 332 331 333 333 334 331 331 331 333 334 333 330 329 332 332 333 332
330 330 331 334 337 337 338 341 343 344 346 346 347 347 347 348 350 351 353 356 357 359 359 359 359 358 359 358 359 359 359 359 358 357 356 357 356 356 356 355 354 354 353 352 352 352 350 349 347 345 344 343 343 342 341 340 340 339 338 338 336 337 336 336 335 334 337 334 333 331 331 333 332 330 331 331 333 333 334 333 331 331 331 331 333
330 330 332 333 335 337 338 340 343 345 346 346 347 347 348 347 348 351 351 353 355 357 359 359 359 358 358 358 358 359 359 358 358 357 356 356 356 356 355 355 354 353 352 352 351 352 351 349 348 346 345 344 343 342 341 341 340 339 338 337 337 336 336 337 336 335 335 335 333 332 333 333 332 331 331 332 333 333 333 333 332 332 333 335 333
331 330 332 333 335 336 340 342 344 346 347 347 347 347 347 347 347 349 351 352 354 356 358 359 359 358 357 357 358 358 359 359 358 357 357 356 355 355 355 355 355 353 351 350 350 352 352 351 350 348 346 344 343 343 341 340 340 339 338 336 335 335 336 336 337 337 337 335 333 333 333 334 333 332 332 332 334 334 335 333 334 333 334 335 332
331 330 330 333 336 337 339 341 342 345 346 348 348 348 347 347 346 347 350 352 355 356 357 358 358 357 356 357 358 359 359 359 359 357 356 355 354 353 354 355 356 354 353 351 350 351 352 352 351 349 347 345 343 342 342 340 340 339 338 336 335 335 335 336 336 336 336 335 334 335 336 335 334 334 334 334 335 334 334 332 333 334 334 334 333
329 329 332 335 336 338 339 340 341 342 344 347 348 348 348 347 347 347 350 352 354 356 356 357 357 356 356 356 357 358 359 359 358 357 355 354 354 353 353 354 355 355 355 354 353 352 353 352 351 349 347 345 343 343 342 341 339 339 338 337 335 335 335 336 335 336 335 335 336 336 336 336 339 342 343 341 341 342 336 332 333 335 334 333 332
331 333 335 336 338 339 341 342 342 342 343 346 348 348 347 347 346 347 348 350 352 354 355 355 356 356 356 356 356 357 358 359 358 357 356 355 354 354 353 353 355 355 354 354 353 354 354 353 351 349 347 346 344 344 338 329 333 339 338 338 336 335 335 336 336 335 334 336 337 337 338 342 343 341 342 345 341 341 340 337 334 334 333 330 329
338 339 338 337 337 339 341 343 345 346 345 346 348 349 349 348 347 347 347 348 349 352 353 352 354 356 356 356 356 356 357 357 358 358 357 355 354 354 353 352 354 355 355 354 354 354 354 353 351 349 347 346 345 343 330 327 330 333 338 338 336 335 336 336 336 334 334 334 334 335 335 340 342 342 336 340 339 336 336 336 335 335 336 332 329
342 342 343 342 342 343 343 345 348 349 348 347 348 349 349 348 348 347 347 347 347 349 350 350 352 355 356 357 357 357 357 357 358 358 357 356 355 353 352 351 353 354 354 354 353 354 353 353 351 349 347 346 345 333 326 327 329 329 334 339 338 337 337 336 335 335 335 334 334 334 336 338 338 336 336 337 338 336 333 333 333 332 332 334 334
340 341 341 342 345 350 351 349 350 351 351 349 349 349 349 349 348 348 347 346 345 346 348 348 350 353 356 358 358 358 358 357 357 358 358 356 355 353 352 353 354 355 355 354 353 353 352 351 350 348 347 346 345 330 325 325 327 328 331 336 337 338 337 336 336 336 334 333 333 334 335 338 339 343 341 336 336 335 333 331 331 333 333 331 328
339 341 343 344 344 348 356 355 353 353 354 352 351 350 350 350 349 347 345 344 343 344 345 347 348 351 355 358 359 359 359 358 358 357 357 357 355 354 355 356 356 356 355 354 353 352 351 349 348 348 346 346 346 328 324 323 325 326 328 333 336 338 338 337 336 336 334 333 334 333 334 335 336 338 336 335 334 333 332 330 330 330 332 335 332
339 342 344 344 344 345 351 354 355 356 355 354 351 350 350 349 348 344 343 343 341 343 344 345 347 351 355 357 358 359 359 359 359 358 358 358 357 356 357 356 355 354 353 352 351 350 350 349 349 348 346 346 347 324 321 321 322 323 326 334 339 340 339 338 337 335 334 334 335 335 335 334 334 335 335 335 333 332 331 331 331 331 332 332 333
332 343 345 345 346 346 350 353 356 356 355 355 353 352 351 350 349 345 342 340 340 343 343 344 345 351 355 358 359 359 359 360 360 360 359 359 357 357 356 355 354 353 353 352 351 350 349 348 349 348 346 343 333 318 320 320 320 321 327 338 339 338 337 335 334 335 335 335 336 336 334 334 334 334 334 333 335 332 331 330 330 330 331 332 333
327 335 345 349 349 348 350 352 354 355 355 355 355 354 353 352 349 347 343 340 339 342 344 344 345 350 356 359 360 360 361 362 361 360 359 358 357 356 356 355 353 352 351 350 350 349 349 348 347 345 339 333 328 320 318 317 318 320 328 338 337 336 334 332 331 332 334 337 337 336 335 335 335 334 332 325 329 337 330 330 329 328 330 331 331
321 328 346 350 350 350 351 352 353 353 354 355 356 355 354 353 351 350 348 343 339 342 347 346 346 352 358 360 362 362 362 361 360 358 357 356 356 356 355 355 353 351 350 350 349 347 347 347 346 341 337 332 329 320 315 314 317 321 329 335 334 333 331 331 332 334 335 336 339 342 340 335 334 332 327 324 325 333 329 328 327 329 330 329 330
324 323 347 351 351 351 352 355 354 353 354 355 356 355 354 353 352 352 352 350 344 344 350 348 349 356 361 363 364 363 362 360 358 357 356 354 354 354 355 355 353 351 347 346 347 347 345 345 344 340 330 331 329 319 312 314 317 320 331 334 332 330 328 329 331 333 335 336 337 340 342 338 334 331 323 321 322 329 328 327 327 328 328 328 327
336 338 335 353 355 355 355 355 354 353 355 356 355 355 353 352 352 353 352 351 351 353 355 353 357 363 365 365 364 361 360 359 357 355 354 354 354 354 354 352 349 345 342 342 343 342 340 337 337 336 333 331 326 322 319 314 316 319 324 334 331 329 327 328 328 330 332 333 333 333 335 328 324 324 319 316 316 320 328 327 327 327 325 324 320
334 339 345 350 357 356 356 357 356 355 355 356 355 354 352 353 353 352 351 352 357 360 360 363 364 365 364 363 362 360 358 357 356 354 354 353 352 352 350 347 343 341 340 340 340 338 336 334 334 333 331 328 326 324 321 313 314 317 320 324 331 329 329 328 328 329 329 330 331 332 332 327 320 318 314 310 311 314 323 322 321 322 323 319 315
344 351 346 341 353 355 356 358 358 357 356 356 354 353 353 353 353 352 352 355 362 363 364 365 364 363 362 360 359 358 357 356 354 353 351 349 349 349 346 342 340 339 338 337 337 334 333 332 332 331 330 328 326 323 322 314 314 314 316 320 329 330 329 329 327 327 327 329 330 332 332 327 318 315 312 308 307 310 314 320 316 309 308 310 315
340 345 348 350 346 351 355 357 359 359 358 357 355 353 353 353 353 353 355 360 364 365 365 364 362 361 359 358 357 355 355 354 352 351 349 347 346 343 341 340 338 336 335 333 332 332 330 329 329 330 329 328 327 326 320 320 312 311 310 315 320 325 322 330 327 326 326 328 331 332 333 324 315 309 304 303 305 307 312 315 304 305 306 309 316
344 348 349 350 352 350 352 355 360 360 359 357 356 353 353 352 353 356 360 363 364 365 364 361 358 358 357 355 355 355 354 352 351 350 347 343 340 339 338 337 335 334 332 331 330 330 329 328 328 329 329 327 326 326 320 317 316 311 309 310 313 317 319 327 328 326 327 328 331 332 324 309 302 299 301 304 306 309 315 305 303 306 308 312 314
340 339 339 342 346 344 341 344 354 359 358 357 357 354 352 351 355 360 362 362 362 362 360 358 357 355 353 353 354 354 352 351 349 347 342 339 338 337 335 334 334 332 331 330 329 330 328 328 327 327 328 328 327 326 323 319 316 312 310 309 311 311 313 316 329 330 333 326 319 309 302 303 302 301 303 306 307 307 308 305 304 306 315 313 314
343 341 337 336 338 340 340 338 339 344 353 356 357 356 352 354 361 361 362 362 360 358 356 355 354 353 352 352 351 350 349 348 346 343 341 339 337 336 334 333 332 332 331 330 329 329 329 328 328 328 328 329 330 327 324 322 320 316 315 312 313 314 320 321 322 317 312 309 306 304 304 305 305 307 309 310 312 312 308 309 309 310 312 312 312
338 339 338 337 339 339 338 339 339 340 339 353 359 358 359 362 361 362 361 359 357 355 352 351 350 349 349 349 347 346 345 344 342 341 340 338 337 335 334 333 332 331 330 329 329 329 329 328 328 328 329 330 331 329 326 322 321 318 318 316 315 318 319 318 318 314 312 311 308 310 311 310 310 310 313 316 316 319 313 309 310 312 312 312 314
337 338 339 337 335 334 335 336 335 336 338 339 347 356 362 362 361 360 357 355 352 351 350 349 347 346 344 344 344 345 342 340 340 339 338 336 335 335 334 332 332 331 330 329 329 329 328 328 328 329 330 330 330 330 327 323 321 320 319 317 319 322 320 320 318 315 316 316 315 314 310 313 313 312 312 313 315 318 317 316 313 313 314 315 318
334 337 338 338 336 332 333 335 334 335 337 338 341 342 343 345 348 348 345 343 342 342 342 343 344 343 341 341 341 340 337 330 321 315 311 314 332 336 332 323 318 325 334 332 330 330 330 330 330 331 330 329 330 329 330 319 325 316 320 320 320 322 322 322 320 314 320 320 316 314 313 315 314 313 313 313 313 313 316 317 318 316 316 315 315
335 337 338 339 338 336 337 337 336 336 335 336 338 342 343 345 345 343 343 342 343 343 343 342 341 340 339 338 334 330 327 326 324 320 317 313 304 299 310 324 319 311 305 307 321 331 333 332 332 331 330 331 330 332 317 311 309 308 308 310 311 312 312 320 315 313 319 317 316 314 314 314 315 314 314 313 314 313 314 315 316 317 317 316 315
335 335 336 337 339 340 336 333 334 336 337 338 339 343 343 343 344 345 344 342 341 341 341 340 338 337 335 334 331 328 327 325 324 322 320 318 315 309 297 296 302 303 299 296 296 303 310 321 329 325 313 311 320 312 307 307 306 305 305 306 306 306 306 308 307 316 320 318 316 316 316 316 316 316 316 316 316 316 316 316 316 316 317 316 313
Wind_Speed
13 12 11 13 15 13 11 12 10 12 11 14 12 13 12 9 11 9 11 12 11 11 8 7 7 6 6 7 5 5 6 5 5 4 6 6 8 8 8 7 6 6 4 4 5 4 3 3 5 5 5 5 5 5 4 4 4 3 2 2 1 0 1 1 3 3 1 2 2 2 3 3 1 1 2 3 3 2 3 7 6 6 5 6 5
14 12 10 11 13 14 12 11 11 14 12 15 15 13 12 10 11 10 10 10 13 12 10 8 7 8 8 8 5 5 6 6 5 5 5 5 8 8 8 7 7 6 5 5 4 4 4 5 5 5 5 5 4 4 3 3 3 3 3 1 2 3 2 2 2 4 1 1 1 3 2 2 2 1 3 3 3 2 2 6 5 6 6 7 7
15 15 15 11 15 17 12 12 12 14 12 14 14 13 13 12 9 10 9 10 11 12 11 9 6 6 7 6 7 5 5 5 5 5 4 5 8 9 8 7 7 6 6 6 5 5 4 5 4 4 4 4 4 3 3 3 4 4 4 4 2 0 2 2 3 2 2 1 1 1 1 1 2 3 2 3 2 6 5 7 6 7 7 7 7
17 17 17 14 13 15 14 13 13 13 12 12 13 15 13 13 10 11 9 10 10 11 11 10 9 6 7 6 6 6 6 6 6 5 5 5 7 8 7 7 8 7 6 5 5 5 5 5 4 5 5 4 5 5 4 4 4 3 3 3 3 2 0 1 2 3 2 3 2 1 1 1 0 2 2 3 2 5 6 7 7 6 6 5 6
16 17 18 16 14 16 17 15 14 14 14 14 14 15 12 15 13 12 11 9 10 10 12 10 9 6 7 6 6 4 4 7 7 6 6 5 4 7 8 8 7 6 6 5 5 5 5 5 5 5 5 5 6 6 6 6 5 5 5 5 3 3 2 0 0 3 3 4 5 2 2 2 0 2 1 1 2 4 5 6 6 6 5 6 6
17 18 19 19 16 14 15 15 16 15 15 14 14 14 13 13 13 12 11 10 10 12 12 11 10 10 9 9 9 8 6 8 9 9 7 7 6 6 7 8 7 7 6 6 6 5 6 6 6 6 6 6 6 7 6 6 6 6 5 6 4 2 4 2 2 1 5 4 4 3 4 3 1 2 4 1 4 2 6 7 6 6 5 6 4
16 17 18 19 18 16 16 17 17 16 15 14 13 13 14 13 13 13 12 11 10 10 13 11 11 10 11 10 10 11 9 5 7 7 7 6 5 7 7 7 8 8 6 7 7 7 7 7 7 7 7 6 5 5 5 7 7 6 4 4 5 4 4 3 3 1 1 1 3 4 3 1 4 1 0 0 2 4 3 3 2 4 5 5 5
16 17 18 19 19 18 18 18 17 17 14 13 13 13 15 15 15 14 11 12 12 10 12 12 12 11 10 9 8 8 9 7 7 7 6 6 6 8 7 7 8 7 7 7 8 8 7 7 8 7 7 6 5 6 6 4 4 3 5 6 5 5 5 5 2 3 2 0 2 3 1 3 2 2 1 3 2 0 4 2 1 1 1 3 7
17 16 17 19 19 19 17 17 17 16 14 14 14 14 14 15 15 13 12 12 12 13 12 12 12 12 11 9 8 7 7 6 6 6 7 7 7 7 8 8 8 8 9 9 8 8 8 7 8 8 8 7 6 6 5 4 6 7 6 5 5 4 4 3 3 2 2 2 2 2 3 3 2 0 2 2 1 1 1 1 2 2 1 2 2
17 19 18 19 20 19 18 18 17 17 16 14 14 13 13 13 15 15 14 12 12 14 13 13 13 12 11 10 10 9 7 6 7 7 7 7 8 8 8 8 8 7 8 8 8 8 8 8 8 9 9 8 6 7 5 5 6 6 6 6 4 4 2 3 4 3 2 1 2 3 2 1 2 1 2 2 1 2 1 1 2 4 2 0 4
14 17 17 17 19 19 17 19 19 17 15 16 15 14 14 15 16 17 16 13 13 14 15 14 13 12 12 12 12 11 10 9 8 8 7 7 7 7 9 8 8 7 8 7 8 9 9 8 8 7 7 8 8 6 5 6 6 6 6 5 5 5 3 3 2 2 3 2 2 3 4 3 4 2 4 3 3 1 1 0 1 0 2 1 1
16 16 16 16 15 18 18 18 19 18 16 16 15 15 15 15 16 17 16 15 13 13 15 15 13 13 12 13 12 12 11 9 11 10 10 10 8 8 8 9 8 7 8 7 8 10 9 9 8 7 7 7 7 6 5 7 7 6 6 6 5 5 5 4 3 3 3 3 3 2 3 3 3 3 5 5 5 4 4 2 2 1 2 0 1
15 16 15 15 15 18 19 18 18 18 18 18 18 16 15 15 17 18 17 16 15 14 15 15 15 14 13 13 12 11 11 10 10 10 10 10 8 8 10 9 9 8 8 9 9 11 9 10 9 8 7 6 6 5 4 7 6 6 6 6 6 6 6 5 5 4 4 4 4 3 2 2 4 4 1 4 5 5 6 3 1 2 2 1 0
14 13 16 18 17 17 19 18 19 19 19 18 18 17 15 15 17 19 18 17 15 15 15 15 15 14 14 13 12 11 11 10 9 9 10 9 8 10 10 10 10 10 10 11 11 11 10 10 9 8 7 6 6 6 5 5 7 6 6 7 6 6 5 5 5 4 3 4 4 4 2 3 0 2 3 4 3 4 2 2 1 2 1 1 1
13 15 13 15 18 18 17 18 18 18 20 19 17 16 15 15 17 18 17 17 17 16 14 15 14 14 13 13 12 10 10 10 9 8 9 10 9 10 10 10 10 9 10 11 10 11 11 10 8 8 8 7 6 6 5 4 6 6 6 7 6 6 6 6 4 4 4 3 4 3 3 2 5 2 4 5 4 4 5 4 4 1 2 3 1
13 13 13 14 17 16 16 17 17 17 19 18 18 17 16 16 17 18 19 18 17 16 15 15 14 13 13 14 13 12 10 9 9 8 8 11 11 11 11 10 9 10 9 9 11 10 10 10 9 7 9 8 7 6 6 5 6 6 6 6 6 5 7 6 6 5 5 4 4 4 4 5 4 4 5 6 6 6 5 4 5 5 5 1 2
14 13 14 13 13 15 16 17 16 16 17 19 18 17 18 17 17 18 18 17 17 16 15 14 14 13 14 14 13 12 12 12 11 12 11 10 11 10 11 11 11 10 9 8 10 8 10 10 10 8 9 9 7 7 7 7 6 6 6 5 7 7 7 8 7 7 5 5 4 5 5 5 4 3 3 4 5 5 6 6 5 6 5 3 1
16 17 15 15 14 17 16 15 17 18 19 18 18 17 16 16 18 19 18 18 18 17 16 14 15 15 14 14 14 14 13 13 12 12 11 10 10 10 10 11 11 11 9 9 8 8 10 11 10 9 9 8 8 7 8 8 7 7 7 6 6 6 6 6 6 6 6 4 3 3 4 3 3 4 4 3 4 5 5 6 6 5 6 6 5
16 16 15 14 14 15 16 18 19 18 17 18 17 17 16 15 16 19 20 20 19 16 15 14 15 12 12 14 14 13 13 12 11 12 11 11 12 12 12 12 11 11 10 9 9 8 10 10 10 10 9 9 8 8 8 8 8 7 7 7 6 5 7 6 6 6 6 5 4 3 3 3 4 4 4 5 4 5 6 5 5 5 5 5 6
16 16 16 16 17 18 19 19 18 18 18 17 18 17 18 17 16 16 16 16 16 17 15 15 15 13 12 12 13 13 13 13 12 12 12 12 13 13 12 12 13 11 11 10 10 9 10 11 10 11 10 9 9 9 10 9 8 8 7 7 7 6 6 7 7 6 6 6 5 5 5 5 5 5 5 5 5 5 6 6 6 6 6 6 5
18 17 16 17 18 18 17 17 18 16 15 16 18 20 18 16 17 18 18 18 18 18 17 15 14 14 14 15 14 14 15 13 13 13 13 12 12 12 12 12 10 11 11 11 11 11 10 10 11 11 11 10 10 10 10 9 9 8 8 8 7 7 7 6 7 8 6 6 7 6 6 7 6 6 6 6 6 6 6 6 6 6 5 5 6
19 18 19 17 16 17 18 17 14 15 17 20 19 18 19 19 18 18 18 18 19 18 16 15 14 14 15 15 15 14 14 13 13 13 13 14 13 12 12 10 12 11 11 12 12 11 10 10 11 11 11 11 11 12 11 10 10 10 9 8 8 9 8 8 6 7 8 6 7 8 7 7 6 7 5 6 6 6 6 6 6 6 6 6 6
21 20 18 16 15 17 18 18 18 18 19 20 18 19 20 19 19 18 19 19 19 18 16 15 14 14 16 15 15 15 14 15 15 13 15 14 13 12 12 12 12 11 11 12 12 12 11 11 10 11 11 12 12 12 11 11 11 11 11 9 9 10 10 9 10 9 8 6 7 8 8 6 4 5 5 4 4 4 3 5 5 5 5 6 5
15 15 15 15 14 13 12 15 17 16 16 19 19 18 17 18 19 18 20 20 19 17 16 15 15 15 16 15 16 15 16 15 15 14 16 15 14 13 12 12 12 11 12 11 12 12 12 12 12 12 11 12 12 12 11 11 12 12 11 11 10 9 10 10 9 9 8 7 8 7 7 7 5 5 4 4 3 3 3 3 4 4 5 6 5
16 15 14 11 10 12 14 15 16 16 16 16 16 17 18 18 17 18 18 19 18 16 17 16 17 17 16 16 17 16 17 17 17 15 17 16 15 13 12 13 12 13 13 11 10 11 12 12 13 13 13 12 13 12 12 12 11 11 12 11 10 9 9 10 10 10 9 9 9 8 7 6 5 5 4 4 3 4 3 3 4 4 5 5 4
12 12 9 12 14 13 12 10 11 13 15 15 16 17 17 17 18 17 17 17 17 16 17 17 17 17 17 18 18 17 18 18 18 17 17 16 15 14 13 12 13 14 13 12 12 11 12 13 13 13 13 12 12 12 12 12 12 11 11 11 10 10 9 9 10 10 10 10 9 7 6 6 5 6 5 4 3 4 4 4 5 4 5 4 4
16 14 12 13 12 15 15 14 14 15 14 14 16 17 17 17 17 17 17 17 16 16 16 17 17 18 17 18 18 18 17 18 18 17 15 15 15 15 15 14 13 14 13 13 13 13 11 12 12 11 11 11 11 11 11 11 11 11 11 11 11 10 11 11 8 8 9 8 7 6 6 5 5 5 5 4 3 3 5 6 6 6 5 4 5
15 16 17 16 17 16 14 14 14 14 14 13 14 16 17 17 18 17 16 16 14 16 16 16 17 18 18 19 18 18 17 17 17 16 15 15 15 14 14 13 12 13 14 13 13 13 11 10 10 10 10 9 9 9 9 10 9 10 11 10 11 12 12 8 7 6 6 6 5 5 5 5 5 4 4 3 3 4 4 4 4 4 5 4 5
16 15 13 12 12 11 13 13 13 14 14 14 14 15 14 15 16 17 17 18 16 16 17 17 17 18 18 18 17 16 15 15 16 15 15 15 15 14 13 12 12 13 11 11 9 10 10 9 9 9 8 8 9 9 9 9 10 10 11 11 12 10 7 7 7 6 5 5 5 5 5 4 4 5 6 5 4 3 2 2 0 0 1 2 1
15 13 13 13 14 15 15 15 14 15 15 14 14 15 16 17 18 18 17 17 16 17 17 17 18 18 17 17 17 15 15 15 15 16 16 15 14 14 13 12 12 12 11 9 9 9 11 11 10 9 9 9 9 8 11 16 14 11 11 11 8 8 10 10 8 6 4 4 5 5 5 7 5 5 3 5 6 5 4 4 4 3 3 2 1
11 10 11 12 13 13 12 13 14 16 17 16 16 16 17 18 17 18 18 17 17 17 18 18 18 17 17 16 15 15 15 16 16 15 14 14 14 12 11 10 9 10 11 9 9 9 11 10 11 11 11 10 10 10 16 16 17 17 13 10 10 12 11 8 6 7 7 6 5 5 4 6 5 5 4 5 5 6 7 7 8 8 6 6 5
13 14 14 14 15 15 14 15 16 17 17 16 16 16 16 18 18 19 19 17 17 18 19 18 18 17 16 16 15 15 15 16 15 15 14 13 12 11 10 9 8 10 10 9 10 10 10 10 10 11 12 11 10 13 17 18 19 19 16 11 10 9 8 7 7 8 8 8 8 7 5 4 4 5 5 4 5 7 8 8 9 8 9 8 7
18 17 16 15 14 13 14 16 16 16 17 18 18 16 17 18 18 18 17 17 17 18 19 18 17 17 18 17 16 16 16 15 15 14 13 12 12 10 9 9 11 10 10 11 10 9 9 10 10 11 11 11 10 14 18 20 20 20 19 13 8 8 7 8 9 9 9 8 6 6 6 5 4 8 6 4 5 5 7 9 7 8 8 9 9
15 17 16 15 14 13 13 15 14 16 18 18 17 18 19 19 18 16 17 18 17 16 18 19 18 18 18 17 17 17 17 16 15 14 12 12 12 11 9 9 8 9 10 9 9 9 9 10 10 11 11 11 12 15 20 20 20 19 18 14 8 7 8 9 9 9 9 9 8 7 7 6 4 4 4 4 4 5 4 3 5 5 6 6 8
12 12 13 14 15 13 12 11 12 14 14 14 15 16 15 15 15 16 17 18 17 16 17 18 18 18 18 17 17 17 17 15 14 13 13 13 12 10 10 9 9 9 9 9 9 8 8 10 11 11 11 12 10 15 19 19 19 17 15 13 8 8 9 9 9 11 10 9 8 7 7 7 5 4 5 6 5 5 4 4 4 4 4 5 5
8 14 15 12 12 13 14 15 14 14 13 14 16 15 15 16 16 17 16 17 17 15 16 17 18 17 18 18 18 17 15 14 14 13 13 13 12 12 11 9 8 8 7 8 7 8 9 9 10 10 8 5 5 15 16 17 16 16 18 9 8 9 9 9 9 10 9 8 7 6 6 5 5 6 8 10 8 4 4 5 6 6 6 6 6
6 11 12 14 17 17 17 16 14 13 14 15 14 15 15 15 16 15 16 16 16 16 16 18 18 17 17 17 17 17 15 14 14 14 14 13 12 11 10 9 10 9 9 9 9 8 7 6 4 4 6 5 5 12 18 18 18 18 14 9 9 9 8 10 9 8 7 6 5 5 6 6 5 6 8 10 10 9 6 7 6 6 5 4 5
6 6 14 15 13 14 14 14 14 15 16 15 14 15 15 15 16 16 16 15 16 16 16 17 17 17 17 16 16 16 16 15 15 15 14 12 11 9 10 9 10 10 9 7 6 5 4 5 6 7 8 8 6 9 14 17 19 20 15 10 9 9 9 9 7 5 6 5 7 12 8 6 7 7 10 10 11 9 6 6 5 5 5 5 5
1 3 8 14 16 18 17 16 17 17 15 13 14 16 16 15 16 17 16 15 16 16 16 17 18 17 16 16 15 16 16 16 15 14 13 13 12 11 8 7 7 6 6 5 5 6 5 5 7 8 11 11 7 7 12 17 18 18 13 9 9 8 9 7 7 6 5 6 6 9 13 9 8 8 10 9 9 8 6 6 5 5 5 5 1
5 3 4 13 13 12 13 15 16 17 17 17 16 15 16 16 17 16 17 17 16 16 16 16 15 14 15 15 15 16 16 16 15 13 12 11 10 9 8 8 7 7 7 7 7 7 7 5 5 7 7 7 8 7 9 14 16 17 15 10 8 9 9 8 7 7 6 5 6 6 7 10 10 9 8 9 10 11 7 5 4 5 4 3 1
4 1 2 9 11 14 16 18 17 17 16 17 17 16 16 17 16 16 18 18 15 14 14 14 15 15 15 16 15 16 16 14 14 13 12 10 9 10 9 9 9 8 8 8 8 7 7 6 5 6 6 6 8 10 11 17 17 17 16 13 8 8 7 7 7 6 6 6 5 5 5 7 11 11 9 9 9 9 4 2 3 2 1 1 0
4 6 4 5 13 15 16 18 16 16 15 15 16 17 18 17 16 18 18 15 13 14 15 15 16 16 16 16 15 14 14 13 13 13 12 10 10 11 10 11 9 9 10 9 8 7 7 6 5 5 4 5 8 14 11 13 17 17 16 14 8 7 8 7 7 6 5 6 6 7 7 9 12 11 9 7 6 6 3 2 3 4 5 3 1
6 6 8 3 10 16 18 17 14 15 15 16 17 18 16 16 18 20 15 12 14 14 16 16 16 16 16 16 15 16 14 12 12 14 14 13 11 11 11 11 10 10 10 9 8 8 8 7 6 5 4 5 6 8 15 12 12 13 13 11 11 8 9 7 8 7 7 7 7 7 8 11 11 9 9 9 9 8 5 4 6 6 6 4 2
17 13 9 6 5 3 8 12 13 13 15 15 18 18 16 16 17 13 12 14 15 14 15 16 15 15 15 14 15 15 14 13 14 13 13 13 12 11 10 9 10 10 9 9 8 8 8 8 8 6 6 6 6 7 9 13 12 12 12 11 9 10 11 6 6 6 6 7 7 6 6 9 11 12 11 11 10 10 6 9 8 6 5 4 2
13 12 13 13 12 14 15 15 8 10 16 14 15 16 17 18 12 12 16 17 17 17 17 16 16 15 15 14 13 13 13 13 13 14 13 12 12 12 11 9 10 9 9 9 8 8 9 8 8 8 7 7 7 6 6 8 12 13 12 11 10 7 5 4 5 4 3 3 5 10 11 12 12 12 12 10 9 9 8 7 7 6 6 3 3
17 15 15 11 7 12 12 12 18 25 17 10 12 15 18 14 13 15 16 17 18 17 17 17 15 14 14 14 14 13 13 13 12 11 12 11 13 12 11 9 9 8 8 9 8 8 8 8 7 7 7 7 7 7 7 6 7 7 7 9 9 6 5 3 4 4 6 9 10 11 11 11 10 9 7 5 5 6 9 10 10 8 4 5 5
16 14 12 10 7 10 10 12 8 12 20 21 6 11 13 13 15 16 17 18 18 18 17 16 16 15 15 15 15 13 12 12 12 11 10 10 9 9 10 9 9 9 8 7 8 8 7 7 8 8 7 7 7 7 7 6 6 6 6 5 5 4 5 6 5 4 6 6 7 8 7 8 7 12 8 5 5 5 5 5 5 5 6 6 6
13 14 11 9 9 8 10 9 7 8 10 17 22 8 6 15 16 16 17 18 19 19 18 16 17 16 13 14 14 17 15 11 11 11 11 10 8 8 9 9 9 9 9 8 8 8 8 8 8 8 8 7 7 7 7 7 7 7 7 6 6 5 5 5 5 4 5 6 6 5 5 4 4 3 2 2 3 4 4 5 5 6 6 6 7
16 14 12 10 7 6 7 9 9 9 13 13 14 16 19 18 15 14 15 16 15 18 18 16 13 12 12 13 12 11 10 10 10 11 9 6 6 8 8 6 4 2 8 10 9 8 8 7 8 8 9 8 7 7 8 8 9 11 10 9 8 8 7 6 7 10 6 5 5 5 4 4 4 3 3 5 5 4 6 6 6 6 6 6 5
10 10 12 9 5 5 5 10 9 10 11 13 8 11 8 13 16 15 18 19 14 16 16 13 11 11 12 12 10 10 10 10 11 11 11 10 14 15 9 6 4 4 6 3 5 7 7 7 7 7 7 11 10 8 11 16 15 15 15 16 13 12 11 8 10 14 8 6 6 6 6 5 5 5 5 5 6 6 6 6 7 7 6 6 4
11 13 14 11 9 5 4 8 8 9 9 7 9 5 11 14 13 13 14 15 14 11 10 11 11 10 11 11 11 10 9 9 10 10 10 11 9 11 16 15 10 7 8 11 10 4 6 9 10 6 3 6 8 15 17 16 16 16 17 16 14 14 14 13 13 11 7 7 6 6 6 6 6 6 6 7 7 6 7 6 7 6 7 5 4
Wind_Direction
184 189 184 168 174 172 164 173 173 172 162 172 167 172 174 165 176 161 169 163 164 171 171 161 156 156 161 178 184 182 176 186 200 190 183 174 163 164 167 169 170 174 172 168 179 171 153 125 120 138 149 145 142 160 180 187 191 189 209 187 147 99 301 267 247 144 68 355 351 2 315 253 197 194 290 297 293 349 118 112 125 109 100 95 113
175 185 192 178 168 177 170 172 169 176 174 171 175 173 176 168 176 170 165 167 169 169 169 169 170 173 167 179 172 176 177 181 204 208 191 167 153 160 166 169 167 168 174 177 177 168 151 135 139 148 144 140 151 166 180 187 191 204 174 91 214 167 228 218 235 105 32 92 18 331 334 336 316 290 281 253 239 79 141 114 111 107 101 100 108
176 183 189 189 173 177 176 175 176 177 173 172 173 172 177 180 175 178 164 166 172 167 167 172 169 166 170 171 172 175 185 183 188 196 194 172 156 164 165 165 163 170 180 167 168 167 151 139 146 149 150 151 147 174 189 198 205 195 158 151 259 351 219 219 178 125 158 137 75 81 344 102 325 357 314 294 246 140 168 128 122 115 112 116 121
177 180 186 190 181 176 177 178 180 172 172 170 173 177 178 183 178 179 173 163 171 170 167 171 171 163 165 168 176 172 179 183 188 190 198 173 171 164 163 162 168 167 165 161 166 154 149 151 152 158 168 165 163 178 188 196 178 164 158 159 134 77 17 295 156 126 129 103 25 146 207 125 56 312 289 286 7 144 142 126 125 126 129 111 111
178 180 183 188 189 180 181 179 177 177 177 177 175 177 182 182 179 176 179 166 169 171 168 164 166 161 163 167 179 196 173 179 181 197 193 187 150 162 167 163 159 155 160 163 163 157 156 152 163 172 169 176 178 181 183 188 178 184 162 145 148 158 117 311 36 110 145 156 141 86 26 39 258 260 324 305 23 69 101 122 132 144 138 134 131
177 180 182 187 191 183 180 178 180 181 182 183 180 178 176 178 176 173 178 176 169 173 168 165 170 173 169 172 181 198 186 177 185 188 191 191 171 163 150 156 150 155 163 169 170 165 167 166 169 174 181 185 186 187 181 184 177 183 178 159 158 132 145 110 13 194 169 138 132 154 166 168 175 271 72 323 318 79 122 151 159 143 151 141 130
180 179 181 185 188 186 181 183 182 184 186 180 179 177 175 176 178 174 177 182 173 169 171 170 170 178 180 181 184 188 188 187 179 178 179 183 156 159 156 151 154 160 172 173 178 176 176 174 172 175 182 180 178 180 184 181 183 176 172 124 131 140 108 92 96 129 21 107 152 160 161 158 157 87 235 62 11 321 51 144 132 159 168 133 140
182 181 183 186 186 187 185 184 182 185 182 178 179 177 174 177 177 179 178 180 182 169 175 173 175 177 180 184 180 178 186 184 173 176 170 168 157 158 158 164 167 173 173 180 181 176 178 167 168 170 174 186 176 182 181 185 173 140 145 144 130 129 127 131 168 93 120 269 185 173 176 168 105 93 143 149 167 137 319 348 113 162 97 159 161
181 183 183 185 187 190 184 183 184 180 178 181 182 180 178 176 177 177 178 179 183 179 174 177 175 177 180 181 181 185 183 180 170 169 168 173 168 165 166 169 174 178 176 175 178 171 171 163 164 170 177 190 184 193 192 162 152 139 136 129 132 144 136 152 113 130 120 131 94 97 73 84 104 157 166 105 127 104 291 13 335 354 109 98 140
184 186 183 184 187 188 185 180 180 182 180 179 180 178 178 175 178 179 181 182 182 183 180 176 175 174 178 182 182 184 180 176 171 173 173 168 177 169 168 167 175 172 171 175 165 163 164 165 171 179 182 187 184 196 180 154 151 148 150 148 148 148 169 134 145 175 164 169 135 151 113 90 53 39 64 77 55 117 161 281 94 88 69 280 131
185 188 188 185 184 185 179 180 184 181 179 178 179 180 178 178 179 181 184 183 182 184 182 181 176 177 180 182 184 182 181 176 173 181 174 177 178 172 164 168 174 174 164 175 165 161 164 173 182 186 181 178 190 188 186 160 173 157 153 150 148 151 163 174 139 155 155 133 121 144 169 158 166 171 184 172 144 141 85 345 138 95 148 59 295
181 185 190 187 179 183 181 182 181 182 178 179 181 179 179 180 178 181 183 184 184 184 184 183 181 180 182 182 184 185 181 178 177 179 179 180 178 163 162 161 172 171 163 168 168 166 167 177 187 188 187 177 189 185 166 177 171 158 153 156 157 157 165 161 160 161 164 157 203 172 181 183 182 168 200 162 151 177 146 189 156 195 44 344 282
182 180 185 188 183 182 187 183 179 181 183 182 180 180 178 179 180 180 184 183 185 184 185 185 184 184 182 183 186 185 185 181 177 176 178 178 173 159 160 165 169 171 168 173 178 176 173 177 184 190 191 179 186 182 166 157 162 161 157 158 160 158 168 160 175 187 180 175 204 221 170 141 254 229 257 153 159 161 137 158 235 146 154 230 276
189 185 183 186 187 186 186 181 181 184 184 181 180 179 178 179 180 182 184 184 183 185 185 185 188 185 183 183 184 184 187 184 180 175 180 177 172 166 168 169 174 178 174 183 185 180 179 180 181 187 185 176 177 176 174 149 164 160 162 158 166 171 159 158 174 192 187 198 175 191 122 131 126 69 85 99 129 107 87 135 121 13 82 156 274
186 191 187 184 189 185 183 183 182 183 183 181 180 180 175 178 181 182 182 184 184 186 186 187 187 186 185 183 184 183 183 185 184 180 176 178 176 171 173 173 175 181 185 189 185 183 180 180 180 175 183 178 169 171 175 145 149 156 154 166 161 169 167 164 184 192 209 208 189 183 178 161 133 130 101 87 97 113 142 154 123 94 358 12 355
184 183 184 181 187 185 181 184 184 182 182 181 181 178 177 179 180 182 182 183 185 186 188 187 186 186 185 184 184 182 183 183 182 183 179 179 179 173 178 178 179 185 190 184 189 179 179 178 183 171 177 179 171 162 165 158 151 147 147 161 171 176 171 174 188 197 209 209 200 181 156 174 175 153 147 139 128 136 141 147 128 133 137 266 329
184 182 185 180 179 184 184 183 182 180 181 185 182 179 177 176 178 181 182 182 185 188 187 187 186 186 188 186 182 182 184 184 184 184 180 179 178 176 177 183 183 186 190 184 185 179 177 177 180 172 173 179 170 165 159 162 160 155 157 157 177 176 166 177 183 192 214 216 202 183 179 182 182 135 130 139 148 149 154 148 147 147 154 143 188
185 188 189 186 177 184 186 182 180 183 184 182 181 178 178 178 176 178 179 183 186 186 187 187 187 188 188 187 185 184 186 187 184 185 181 176 180 181 178 182 188 187 187 190 181 174 178 178 178 176 172 175 174 168 166 160 158 164 169 172 182 168 173 176 183 182 198 198 195 195 198 189 163 152 177 171 154 163 151 155 155 150 147 162 177
186 188 191 192 189 186 185 185 184 181 179 181 178 176 178 178 177 178 182 184 183 185 187 188 188 189 188 187 185 185 188 188 187 184 182 181 183 186 186 184 185 187 186 184 185 176 177 180 177 179 175 177 171 170 170 167 162 167 172 177 187 167 173 187 195 187 201 185 183 162 167 171 163 174 168 177 168 161 164 148 149 149 161 171 181
184 190 194 195 197 194 189 186 184 180 179 177 176 177 180 178 176 179 181 180 182 185 187 190 189 187 186 186 188 187 187 189 187 184 186 187 189 190 188 185 187 184 186 183 185 183 177 178 180 179 180 177 174 175 174 170 168 173 174 180 188 180 178 189 200 199 192 182 176 170 180 170 182 173 175 177 183 172 159 157 162 170 177 176 173
187 189 192 196 198 195 193 189 186 178 172 172 177 182 179 176 178 178 178 182 186 187 187 190 186 189 184 187 188 188 190 190 188 186 188 192 194 192 191 189 180 186 183 183 185 187 180 177 181 183 183 181 178 179 178 172 171 176 179 181 186 189 192 195 191 204 200 191 193 199 201 196 184 180 189 189 178 176 170 176 179 172 182 182 172
187 187 193 193 191 193 191 188 182 173 174 178 180 178 179 181 177 178 180 184 187 188 189 186 187 187 189 188 189 191 190 189 189 188 192 195 198 193 189 185 188 186 182 185 185 188 187 179 179 186 186 184 182 180 181 175 175 178 181 183 188 192 198 201 195 196 202 197 197 203 209 206 191 184 184 186 189 180 176 174 185 179 189 192 186
186 188 190 190 186 184 182 181 183 179 179 178 177 180 182 179 177 180 181 186 189 190 186 184 186 187 190 189 188 192 192 191 190 191 196 197 199 196 190 189 189 188 184 188 188 188 188 187 184 186 186 187 185 182 182 181 180 181 184 186 189 194 198 202 201 202 199 192 193 199 201 195 185 183 193 194 196 197 184 177 192 190 194 196 187
187 186 186 186 185 177 171 179 184 182 176 177 181 181 178 181 181 181 184 186 188 187 185 185 187 189 188 187 191 193 193 191 193 195 198 198 197 197 194 193 190 189 189 192 189 189 188 190 193 191 188 186 187 185 182 184 184 184 185 188 190 195 202 204 205 202 200 191 191 189 195 189 185 186 191 191 202 198 194 203 209 202 179 181 184
190 186 184 172 160 170 181 182 184 183 179 176 175 176 179 182 181 185 185 186 187 185 185 186 188 189 188 191 193 193 193 194 196 197 200 198 198 197 195 195 191 193 194 191 192 189 190 192 196 195 193 189 188 186 184 185 186 186 187 189 192 194 201 205 206 205 205 200 199 194 194 190 184 184 186 190 198 206 201 204 222 220 199 188 183
175 174 155 163 174 183 182 181 181 181 178 178 176 176 178 180 185 183 184 186 186 184 187 186 188 189 191 193 195 194 195 195 197 199 200 199 198 198 197 196 195 195 193 194 192 192 193 196 198 196 196 194 188 189 187 185 185 185 187 190 193 197 201 205 206 205 206 205 202 192 187 186 182 184 188 177 177 202 211 217 224 226 218 188 162
168 167 170 172 176 179 182 178 177 181 180 178 177 177 177 178 181 184 185 185 184 185 186 188 189 192 193 196 195 196 195 195 197 200 198 198 200 200 199 198 196 197 195 195 195 195 197 196 197 195 195 193 190 189 189 186 184 184 186 189 195 200 208 211 205 198 202 198 189 184 184 178 177 177 169 168 176 209 217 220 212 211 207 179 180
171 173 172 176 182 181 174 175 174 179 179 176 180 178 176 177 181 183 182 183 184 185 187 189 189 192 195 197 197 196 194 196 198 199 198 199 202 202 202 199 195 199 200 198 195 195 195 195 195 196 193 187 187 189 190 189 182 182 185 192 195 204 209 211 210 205 192 186 178 181 178 175 169 168 161 172 180 216 226 228 222 201 192 190 194
175 174 172 174 176 178 180 177 177 177 179 178 178 180 177 178 180 182 183 186 181 182 187 189 190 194 196 197 197 195 194 195 197 198 200 201 202 203 202 197 197 202 204 200 192 186 186 193 190 187 183 181 186 192 191 187 183 182 188 195 200 199 202 210 217 205 188 172 169 163 158 153 162 165 171 186 201 174 164 172 107 106 205 209 189
174 177 178 178 178 183 184 180 179 179 182 183 180 181 181 180 182 183 185 183 178 183 185 188 191 195 196 196 195 192 192 194 195 198 200 199 201 202 200 198 197 199 198 192 189 181 186 186 182 179 179 182 188 194 191 185 186 184 188 202 188 188 199 206 195 177 164 148 149 137 122 141 174 186 197 190 158 155 167 162 161 136 127 113 134
177 181 184 188 187 184 180 179 180 183 185 184 184 184 184 183 182 183 186 183 181 182 186 189 192 192 193 194 192 192 191 195 197 198 198 198 200 199 198 195 191 189 189 186 183 181 185 181 180 179 183 188 191 195 185 182 186 188 193 189 186 196 199 197 170 160 147 145 116 112 143 185 174 157 152 167 167 175 184 177 181 183 179 184 200
173 181 184 187 188 186 183 185 187 188 185 185 186 185 182 185 183 186 186 182 183 184 186 190 191 188 190 190 190 190 192 195 195 197 195 196 195 195 193 184 176 177 181 178 185 183 176 174 178 181 186 191 196 188 180 182 186 191 189 189 194 189 188 174 158 147 144 136 153 155 174 179 168 166 162 157 175 188 191 201 202 195 199 204 201
175 185 189 188 184 183 188 191 190 188 188 190 185 181 186 188 187 187 181 183 185 187 187 189 189 187 189 188 188 189 191 192 194 193 192 189 190 189 181 173 175 175 170 179 185 168 170 170 174 180 191 194 198 184 181 184 187 191 186 177 181 180 159 164 162 152 146 142 151 168 173 175 178 174 161 170 183 204 215 218 213 210 207 192 197
190 184 185 186 184 187 189 189 190 193 192 190 183 184 189 188 186 179 180 187 186 186 188 189 188 188 188 187 187 187 189 190 188 188 184 182 184 184 175 165 155 159 169 171 170 163 161 169 175 183 191 195 199 184 181 181 186 187 181 168 176 162 159 158 155 145 145 166 174 178 176 175 171 165 179 196 211 218 223 223 228 233 237 227 209
187 194 189 186 191 187 180 183 190 194 194 187 186 189 186 185 180 182 184 186 188 184 188 188 190 189 186 187 186 186 187 185 183 180 178 179 177 168 159 156 153 155 156 160 159 155 161 170 179 185 191 196 199 171 176 178 183 178 165 162 176 161 157 154 150 152 166 174 175 178 175 169 169 190 208 205 211 218 222 231 236 251 255 253 245
182 190 192 192 190 185 184 189 192 189 187 186 187 184 180 185 184 184 186 187 188 184 185 187 190 188 187 186 184 183 181 178 174 172 172 170 164 160 153 150 143 146 152 154 161 163 172 177 181 180 178 164 132 160 167 172 169 163 166 157 153 157 151 148 149 157 166 170 167 166 164 165 186 206 222 214 208 201 216 228 234 239 245 247 253
194 181 194 190 186 190 190 190 188 186 184 190 185 180 180 181 185 187 187 188 188 186 186 186 190 188 185 182 180 177 174 170 165 163 163 158 155 153 146 143 145 155 160 166 172 178 178 176 158 123 107 113 153 173 170 171 164 159 157 160 154 149 144 143 153 156 151 149 148 157 163 178 198 215 226 211 212 206 213 219 227 239 251 267 270
229 190 189 188 193 195 197 191 185 186 189 187 181 179 177 180 186 188 186 189 188 190 187 184 187 186 181 177 175 170 165 161 160 160 157 155 150 147 150 151 150 158 164 168 160 154 144 144 150 136 143 148 168 196 174 162 160 162 154 149 149 146 147 140 136 142 140 147 162 172 180 191 202 219 229 215 208 208 211 218 225 238 250 255 265
303 252 189 194 191 193 194 187 183 188 189 185 182 181 179 183 186 189 189 189 190 190 184 183 184 179 172 169 164 161 160 158 156 154 153 150 150 152 148 140 137 123 114 115 128 129 104 105 129 143 151 146 159 177 178 161 154 148 143 143 143 137 133 138 140 142 151 156 179 194 199 196 204 222 228 223 212 204 212 213 217 227 238 251 267
119 81 181 199 194 189 187 188 190 192 185 181 181 183 185 184 187 188 192 193 188 186 183 179 169 162 160 156 155 155 155 153 150 147 146 142 140 138 139 126 110 109 107 100 98 102 107 105 121 135 139 138 139 149 157 153 148 147 144 142 141 145 149 155 157 163 167 182 187 198 217 219 214 220 217 214 212 207 212 215 212 222 223 233 118
97 30 98 175 194 188 190 193 193 191 187 183 179 182 186 186 184 187 194 196 185 172 163 158 153 151 151 151 152 152 149 146 144 142 137 134 134 130 125 118 114 111 110 108 107 108 108 110 115 120 126 142 151 152 162 161 156 148 143 143 152 148 157 161 164 166 174 179 191 203 210 220 217 212 206 206 209 214 222 216 213 202 182 138 236
35 40 29 172 190 194 194 196 191 187 186 185 181 184 187 184 182 189 195 188 167 159 153 149 149 149 146 144 143 142 140 138 137 134 131 125 123 121 118 116 118 119 117 115 115 113 113 113 108 114 133 146 163 156 154 169 161 157 154 148 144 159 159 154 159 171 172 184 199 200 205 212 206 207 193 170 158 153 171 208 202 151 151 184 218
5 30 15 19 201 193 193 192 187 186 185 185 185 187 187 183 185 190 181 162 155 153 148 146 144 143 143 141 141 140 137 136 137 134 130 126 119 115 117 120 120 118 118 119 120 123 123 122 116 121 130 143 154 159 157 162 166 158 160 149 152 155 157 155 161 177 190 197 200 199 203 197 198 172 144 146 151 164 178 203 178 178 188 207 249
358 358 5 27 17 275 210 183 181 186 191 190 188 183 182 183 189 177 152 147 147 143 140 139 139 139 138 137 136 133 131 132 132 129 123 118 118 119 120 122 122 123 125 127 130 130 129 132 138 144 148 147 154 151 168 163 163 172 173 172 163 157 167 174 171 184 196 199 189 187 164 147 138 142 151 161 169 180 200 193 184 196 196 208 226
13 6 358 7 18 26 15 354 327 215 194 195 188 181 179 180 171 150 149 147 145 141 138 137 136 135 132 133 129 125 125 126 126 124 120 119 119 123 124 130 126 128 132 134 142 143 145 152 148 153 151 148 149 152 157 178 172 175 176 184 185 144 141 154 184 193 160 154 138 130 132 137 145 156 166 169 183 208 210 177 189 198 207 209 217
16 11 6 332 27 53 46 31 6 342 303 228 187 178 174 169 154 151 147 142 137 134 132 131 130 128 125 121 116 113 115 117 115 116 122 130 134 134 133 136 132 132 136 140 147 149 152 147 152 154 152 146 148 152 162 171 179 166 174 188 199 187 168 144 101 83 99 116 120 127 131 138 145 155 160 185 201 201 205 205 206 202 206 215 210
16 16 5 354 25 55 60 69 45 350 351 323 247 174 160 150 148 145 140 136 134 130 127 125 124 121 120 120 116 118 116 113 114 113 117 122 125 127 131 133 136 137 138 141 147 153 150 153 160 155 146 144 145 149 150 159 160 158 171 164 164 168 144 121 107 112 109 108 127 140 159 166 174 184 188 195 207 190 186 209 212 211 215 215 211
19 17 17 14 16 47 70 65 63 55 41 0 330 332 144 144 141 138 134 130 129 128 124 120 117 117 117 113 112 116 117 118 118 121 123 121 120 128 133 139 144 145 146 152 155 160 163 166 161 144 141 145 155 150 155 163 167 163 159 154 169 162 171 172 140 144 133 135 134 126 128 156 155 167 246 276 242 216 201 196 208 212 219 221 224
20 14 13 14 14 42 41 53 60 62 64 52 355 0 6 21 39 60 76 71 72 81 91 93 94 98 104 108 113 115 112 107 93 73 54 49 106 130 119 80 27 117 156 156 163 164 166 167 156 146 146 155 157 175 185 169 166 164 160 161 178 183 178 182 163 143 128 125 118 134 164 176 182 189 211 226 234 229 237 226 223 215 219 224 230
30 28 19 16 18 351 28 50 50 51 65 76 29 335 20 53 71 75 87 90 87 93 99 106 112 116 115 110 106 105 111 114 112 110 104 82 50 46 41 100 127 38 42 59 134 164 169 164 152 148 154 163 180 183 145 152 158 165 169 173 179 175 175 169 158 156 150 153 166 172 190 191 196 200 212 221 223 224 232 233 230 227 218 222 207
23 40 26 13 7 14 64 73 54 55 61 67 83 19 68 77 73 86 91 104 113 117 118 120 120 123 121 116 116 115 113 112 114 112 107 105 90 52 50 52 63 63 68 69 62 97 184 159 139 145 53 31 131 135 153 162 164 170 171 171 172 172 168 168 159 152 169 171 177 186 198 206 212 209 217 223 221 216 225 230 236 224 221 203 166